FW4689 Weather Reports


Display with metric or nautical units.
time (UTC)temp
F
wind
direction
speed
MPH
gust
MPH
rain 1hr
in
rain 24hr
in
rain mn
in
humidity
%
barometer
mb
20260506044531 53 109 0.0 2.0 0.00 0.00 0.00 88 1016.0
20260506043026 53 109 0.0 3.0 0.00 0.00 0.00 88 1015.8
20260506041517 53 109 0.0 3.0 0.00 0.00 0.00 88 1015.7
20260506040023 54 109 0.0 2.0 0.00 0.00 0.00 87 1015.4
20260506034525 55 109 0.0 2.0 0.00 0.00 0.00 86 1015.2
20260506033020 55 110 0.0 0.0 0.00 0.00 0.00 86 1014.9
20260506031532 56 110 0.0 0.0 0.00 0.00 0.00 85 1014.6
20260506030026 57 111 2.0 3.0 0.00 0.00 0.00 83 1014.4
20260506024535 58 115 0.0 3.0 0.00 0.00 0.00 81 1014.1
20260506023102 59 115 1.0 3.0 0.00 0.00 0.00 80 1014.0
20260506021516 60 116 0.0 2.0 0.00 0.00 0.00 79 1013.8
20260506020030 59 116 1.0 3.0 0.00 0.00 0.00 80 1013.9
20260506014512 59 116 1.0 3.0 0.00 0.00 0.00 80 1013.8
20260506013022 59 116 1.0 3.0 0.00 0.00 0.00 80 1013.8
20260506011528 60 115 2.0 4.0 0.00 0.00 0.00 79 1013.8
20260506010043 60 166 2.0 4.0 0.00 0.00 0.00 78 1013.9
20260506004521 61 167 4.0 8.0 0.00 0.00 0.00 76 1013.7
20260506003026 62 186 3.0 7.0 0.00 0.00 0.00 73 1013.8
20260506001529 62 160 2.0 5.0 0.00 0.00 0.00 74 1013.6
20260506000014 61 98 2.0 4.0 0.00 0.00 0.00 75 1013.6
20260505234524 62 88 4.0 8.0 0.00 0.00 0.00 75 1013.4
20260505233029 62 126 5.0 10.0 0.00 0.00 0.00 71 1013.6
20260505231513 62 162 5.0 10.0 0.00 0.00 0.00 71 1013.3
20260505230036 62 132 5.0 12.0 0.00 0.00 0.00 73 1013.5
20260505224525 63 149 5.0 8.0 0.00 0.00 0.00 70 1013.4
20260505223028 63 50 1.0 7.0 0.00 0.00 0.00 69 1013.7
20260505221517 63 267 1.0 6.0 0.00 0.00 0.00 70 1013.7
20260505220026 62 330 2.0 4.0 0.00 0.00 0.00 71 1013.9
20260505214527 61 12 1.0 5.0 0.00 0.00 0.00 72 1014.2
20260505213020 61 316 2.0 5.0 0.00 0.00 0.00 77 1014.4
20260505211522 61 274 3.0 6.0 0.00 0.00 0.00 78 1014.3
20260505210030 62 324 1.0 5.0 0.00 0.00 0.00 72 1014.4
20260505204516 64 182 4.0 10.0 0.00 0.00 0.00 64 1014.3
20260505203028 64 118 9.0 13.0 0.00 0.00 0.00 63 1014.1
20260505201523 64 165 5.0 9.0 0.00 0.00 0.00 63 1014.2
20260505200012 64 174 8.0 12.0 0.00 0.00 0.00 63 1014.1
20260505194559 64 181 5.0 10.0 0.00 0.00 0.00 63 1014.1
20260505193016 64 117 5.0 9.0 0.00 0.00 0.00 62 1014.4
20260505191522 63 118 5.0 11.0 0.00 0.00 0.00 65 1014.4
20260505190032 62 83 1.0 8.0 0.00 0.00 0.00 67 1014.6
20260505184526 62 131 5.0 8.0 0.00 0.00 0.00 69 1014.4
20260505183016 62 152 5.0 10.0 0.00 0.00 0.00 68 1014.4
20260505181527 62 108 7.0 10.0 0.00 0.00 0.00 68 1014.3
20260505180031 62 161 4.0 8.0 0.00 0.00 0.00 68 1014.1
20260505174520 61 98 7.0 10.0 0.00 0.00 0.00 68 1014.2
20260505173035 61 91 3.0 9.0 0.00 0.00 0.00 70 1014.1
20260505171540 60 96 4.0 9.0 0.00 0.00 0.00 72 1014.0
20260505170019 59 110 4.0 9.0 0.00 0.00 0.00 75 1013.8
20260505164523 58 129 4.0 8.0 0.00 0.00 0.00 75 1013.8
20260505163023 58 146 4.0 9.0 0.00 0.00 0.00 78 1013.9
20260505161514 58 122 5.0 8.0 0.00 0.00 0.00 78 1013.8
20260505153033 56 125 2.0 3.0 0.00 0.00 0.00 80 1013.6
20260505151535 56 116 0.0 4.0 0.00 0.00 0.00 82 1013.6
20260505124528 52 55 1.0 2.0 0.00 0.00 0.00 87 1013.1
20260505123018 52 61 2.0 3.0 0.00 0.00 0.00 87 1013.1
20260505121526 52 77 0.0 2.0 0.00 0.00 0.00 87 1013.2
20260505120051 52 77 1.0 2.0 0.00 0.00 0.00 87 1013.2
20260505114512 52 77 0.0 2.0 0.00 0.00 0.00 88 1013.2
20260505113015 52 77 0.0 1.0 0.00 0.00 0.00 88 1013.3
20260505111520 51 77 0.0 2.0 0.00 0.00 0.00 88 1013.5
20260505101529 53 67 0.0 0.0 0.00 0.00 0.00 84 1013.6
20260505100022 54 67 0.0 0.0 0.00 0.00 0.00 84 1013.6
20260505094522 54 68 0.0 0.0 0.00 0.00 0.00 85 1013.7
20260505093018 55 68 0.0 0.0 0.00 0.00 0.00 84 1013.5
20260505091528 55 68 0.0 0.0 0.00 0.00 0.00 83 1013.7
20260505090040 55 68 0.0 0.0 0.00 0.00 0.00 83 1013.9
20260505084513 55 68 0.0 0.0 0.00 0.00 0.00 82 1014.1
20260505083026 55 68 0.0 0.0 0.00 0.00 0.00 82 1014.1
20260505081525 55 68 0.0 0.0 0.00 0.00 0.00 80 1014.4
20260505080011 55 68 0.0 0.0 0.00 0.00 0.00 79 1014.3
20260505074519 55 68 0.0 2.0 0.00 0.00 0.00 78 1014.2
20260505073042 55 28 0.0 2.0 0.00 0.00 0.00 78 1014.5
20260505071517 55 27 0.0 2.0 0.00 0.00 0.00 77 1014.3
20260505070023 55 359 0.0 1.0 0.00 0.00 0.00 77 1014.5
20260505064536 55 359 0.0 1.0 0.00 0.00 0.00 78 1014.4
20260505063026 54 359 1.0 3.0 0.00 0.00 0.00 78 1014.4
20260505061529 54 4 2.0 3.0 0.00 0.00 0.00 78 1014.7
20260505060022 54 4 0.0 1.0 0.00 0.00 0.00 77 1014.5